Location: Ajisawe
(8.4333°N, 4.3833°E)
Time: 22:17:41
(UTC+00:00)

Vanguard 2 Rocket - Pass Details

Date: 27 April 2021
Orbit: 554 x 3326 km, 32.9° (Epoch: 16 May)

Event Time Altitude Azimuth Distance (km) Brightness Sun altitude
Rises 14:16:29 0° 303° (WNW) 6,592 11.8 51.3°
Reaches altitude 10° 14:21:26 10° 312° (NW) 5,869 11.7 50.1°
Maximum altitude 14:38:16 34° 12° (NNE) 4,555 10.8 46.0°
Drops below altitude 10° 14:54:43 10° 71° (ENE) 5,775 10.7 42.0°
Sets 14:59:28 0° 80° (E) 6,484 10.8 40.9°
